This demonstration page uses our WeatherBlox Daily Observations layout. Learn more.

38.88101, -77.10428

Hourly Observations for June 7, 2015

Temp ( °F °C ) Dew Point ( °F °C ) Humidity (%) Winds ( mph kmh ) Pressure ( in mb ) Visibility ( mi km ) Precip ( " mm )
12:17 am 00:17 Cloudy 72 22 64 18 78 78 S 8 13 30.09 1019 10 16.0934 0 0
12:52 am 00:52 Cloudy 70 21.1 63 17.2 79 79 SSW 8 13 30.09 1019 10 16.0934 0 0
1:52 am 01:52 Cloudy 70 21.1 62 16.7 76 76 SSW 8 13 30.1 1019 10 16.0934 0 0
2:52 am 02:52 Cloudy 70 21.1 63 17.2 79 79 S 8 13 30.1 1019 10 16.0934 0 0
3:03 am 03:03 Cloudy 70 21 63 17 78 78 S 9 15 30.09 1019 10 16.0934 0 0
3:38 am 03:38 Mostly Cloudy 70 21 63 17 78 78 SE 7 11 30.09 1019 10 16.0934 0 0
3:52 am 03:52 Mostly Cloudy 68 20 62 16.7 81 81 SSE 6 9 30.09 1019 10 16.0934 0 0
4:52 am 04:52 Cloudy 69 20.6 61 16.1 76 76 S 5 7 30.11 1020 10 16.0934 0 0
5:52 am 05:52 Mostly Cloudy 69 20.6 59 15 70 70 Calm 30.13 1020 10 16.0934 0 0
6:52 am 06:52 Mostly Cloudy 69 20.6 60 15.6 73 73 Calm 30.15 1021 10 16.0934 0 0
7:52 am 07:52 Cloudy 70 21.1 61 16.1 73 73 Calm 30.16 1021 10 16.0934 0 0
8:52 am 08:52 Mostly Cloudy 72 22.2 59 15 64 64 SE 7 11 30.16 1021 10 16.0934 0 0
9:52 am 09:52 Mostly Cloudy 73 22.8 56 13.3 55 55 S 6 9 30.17 1022 10 16.0934 0 0
10:52 am 10:52 Mostly Cloudy 75 23.9 57 13.9 54 54 SSE 10 17 30.17 1022 10 16.0934 0 0
11:52 am 11:52 Mostly Cloudy 76 24.4 58 14.4 54 54 S 9 15 30.16 1021 10 16.0934 0 0
12:52 pm 12:52 Cloudy 77 25 59 15 54 54 S 9 15 30.15 1021 10 16.0934 0 0
1:52 pm 13:52 Mostly Cloudy 78 25.6 60 15.6 54 54 S 12 19 30.14 1021 10 16.0934 0 0
2:52 pm 14:52 Mostly Cloudy 79 26.1 61 16.1 54 54 S 14 22 30.13 1020 10 16.0934 0 0
3:52 pm 15:52 Cloudy 78 25.6 62 16.7 58 58 S 12 19 30.12 1020 10 16.0934 0 0
4:52 pm 16:52 Mostly Cloudy 78 25.6 62 16.7 58 58 S 15 24 30.11 1020 10 16.0934 0 0
5:52 pm 17:52 Cloudy 77 25 62 16.7 60 60 S 13 20 30.1 1019 10 16.0934 0 0
6:52 pm 18:52 Mostly Cloudy 77 25 61 16.1 58 58 SSE 15 24 30.08 1019 10 16.0934 0 0
7:52 pm 19:52 Mostly Cloudy 75 23.9 61 16.1 62 62 SSE 10 17 30.08 1019 10 16.0934 0 0
8:52 pm 20:52 Partly Cloudy 73 22.8 60 15.6 64 64 SSE 8 13 30.08 1019 10 16.0934 0 0
9:52 pm 21:52 Partly Cloudy 71 21.7 59 15 66 66 SSE 13 20 30.08 1019 10 16.0934 0 0
10:52 pm 22:52 Mostly Cloudy 70 21.1 58 14.4 66 66 S 12 19 30.09 1019 10 16.0934 0 0
11:52 pm 23:52 Mostly Cloudy 70 21.1 57 13.9 64 64 S 15 24 30.09 1019 10 16.0934 0 0

Powered by AerisWeather